This is the latest recevied weather packets stored in our database for station/object SR3WXA. If no packets are shown the sender has not sent any weather packets the latest 10 day(s).
| Time | Temp. | Humidity | Pressure | Rain* | Wind** | Luminosity | Snow |
|---|---|---|---|---|---|---|---|
| 1788522958 | 22.22° C | 73% | 1008.1 hPa | 0 mm | - | 97 W/m² | - |
| 1788522775 | 22.22° C | 73% | 1008 hPa | 0 mm | - | 250 W/m² | - |
| 1788522658 | 22.22° C | 73% | 1008 hPa | 0 mm | - | 250 W/m² | - |
| 1788522467 | 22.22° C | 73% | 1008.1 hPa | 0 mm | - | 515 W/m² | - |
| 1788522358 | 22.22° C | 73% | 1008.1 hPa | 0 mm | - | 515 W/m² | - |
| 1788522071 | 22.22° C | 73% | 1008.2 hPa | 0 mm | - | 346 W/m² | - |
| 1788521997 | 22.22° C | 73% | 1008.2 hPa | 0 mm | - | 346 W/m² | - |
| 1788521783 | 21.67° C | 73% | 1008.3 hPa | 0 mm | - | 272 W/m² | - |
| 1788521697 | 21.67° C | 73% | 1008.3 hPa | 0 mm | - | 272 W/m² | - |
| 1788521481 | 21.67° C | 73% | 1008.6 hPa | 0 mm | - | 125 W/m² | - |
| 1788521397 | 21.67° C | 73% | 1008.6 hPa | 0 mm | - | 125 W/m² | - |
| 1788521154 | 21.67° C | 72% | 1008.4 hPa | 0 mm | - | 135 W/m² | - |
| 1788521097 | 21.67° C | 72% | 1008.4 hPa | 0 mm | - | 135 W/m² | - |
| 1788520832 | 21.67° C | 72% | 1008.6 hPa | 0 mm | - | 105 W/m² | - |
| 1788520797 | 21.67° C | 72% | 1008.6 hPa | 0 mm | - | 105 W/m² | - |
| 1788520557 | 21.67° C | 72% | 1008.8 hPa | 0 mm | - | 132 W/m² | - |
| 1788520497 | 21.67° C | 72% | 1008.8 hPa | 0 mm | - | 132 W/m² | - |
| 1788520198 | 21.67° C | 72% | 1008.8 hPa | 0 mm | - | 285 W/m² | - |
| 1788519980 | 21.67° C | 73% | 1009.1 hPa | 0 mm | - | 309 W/m² | - |
| 1788519897 | 21.67° C | 73% | 1009.1 hPa | 0 mm | - | 309 W/m² | - |
| 1788519641 | 21.11° C | 73% | 1009.1 hPa | 0 mm | - | 306 W/m² | - |
| 1788519597 | 21.11° C | 73% | 1009.1 hPa | 0 mm | - | 306 W/m² | - |
| 1788519055 | 21.11° C | 73% | 1009.2 hPa | 0 mm | - | 114 W/m² | - |
| 1788518997 | 21.11° C | 73% | 1009.2 hPa | 0 mm | - | 114 W/m² | - |
| 1788518789 | 21.11° C | 73% | 1009.3 hPa | 0 mm | - | 111 W/m² | - |
* Rain latest hour (hover to see other rain measurements)
** Current wind speed in m/s (hover to see current wind gust speed)